Starlink 11519

operational
NORAD ID: 62560 Int'l Des: 2025-006 Owner: SPXS Country: US Constellation: starlink
LEOCIRCULAR

About Starlink 11519

Description loading...

Live Position

Loading 3D Globe...

Upcoming Passes

Altitude History

Altitude vs Time

uPlot chart will show altitude changes over time

Two-Line Element Set

1 62560U 25006G 25301.47296054 .00325071 00000-0 24189-2 0 9994
2 62560 42.9992 217.2551 0002268 302.4173 57.6475 15.71037864 45800
Epoch: Oct 28, 2025 • Age: 21 hours

Current Status

Altitude 355.4 km
Velocity 7.70 km/s
Sub-Earth Point -12.87°S, 30.45°E
Launch Date Jan 10, 2025
Age 0.7 years
Type internet

Technical Details

Classification Payload
Mass 960.00 kg
Dry Mass 910.00 kg
Total Mass 960.00 kg
Length 0.30 m
Diameter 4.10 m
Span 29.00 m
Shape Box + pan
Manufacturer SPXS
Bus Type Starlink V2MD
Phase Status In Orbit
Owner/State SPXS/US

Large Constellations

Loading constellations...